KLM274 EGAC-EGCC

Flight info

Callsign KLM274
Flight time 0h 34m
Altitude 23000
Route DUFFY L15 PEPOD Q38 MAKUX
Aircraft A21N/M-SDE2E3FGHIRWXY/LB1

Departure

Time 2026-04-21 10:26
Airport George Best Belfast City Airport (EGAC)

Arrival

Time 2026-04-21 11:00
Airport Manchester Airport (EGCC)
Time Latitude Longitude Altitude Speed Heading
2026-04-21 10:17 54.61613 -5.87033 21 ft 0 kts 205°
2026-04-21 10:23 54.61603 -5.87050 23 ft 9 kts 231°
2026-04-21 10:24 54.61524 -5.87213 21 ft 21 kts 228°
2026-04-21 10:24 54.61415 -5.87376 21 ft 20 kts 224°
2026-04-21 10:24 54.61313 -5.87531 21 ft 19 kts 214°
2026-04-21 10:24 54.61206 -5.87656 21 ft 18 kts 214°
2026-04-21 10:25 54.61107 -5.87777 21 ft 17 kts 223°
2026-04-21 10:25 54.61101 -5.87939 21 ft 13 kts 306°
2026-04-21 10:25 54.61164 -5.88012 21 ft 12 kts
2026-04-21 10:25 54.61329 -5.87809 19 ft 69 kts 37°
2026-04-21 10:26 54.61970 -5.87045 25 ft 150 kts 35°
2026-04-21 10:26 54.62791 -5.86056 1048 ft 134 kts 40°
2026-04-21 10:26 54.63561 -5.85145 2091 ft 140 kts 43°
2026-04-21 10:26 54.64192 -5.83787 2785 ft 156 kts 74°
2026-04-21 10:27 54.64175 -5.81834 3424 ft 176 kts 108°
2026-04-21 10:27 54.63327 -5.80152 4010 ft 208 kts 149°
2026-04-21 10:27 54.61778 -5.79796 4669 ft 248 kts 182°
2026-04-21 10:27 54.60626 -5.80193 5293 ft 260 kts 190°
2026-04-21 10:28 54.58868 -5.81178 6108 ft 270 kts 196°
2026-04-21 10:28 54.57093 -5.82362 6989 ft 276 kts 197°
2026-04-21 10:28 54.55300 -5.83577 7841 ft 278 kts 197°
2026-04-21 10:28 54.53484 -5.84760 8734 ft 280 kts 194°
2026-04-21 10:29 54.51592 -5.85249 9572 ft 274 kts 169°
2026-04-21 10:29 54.49837 -5.84151 10407 ft 269 kts 144°
2026-04-21 10:29 54.48275 -5.82289 10929 ft 283 kts 142°
2026-04-21 10:29 54.46600 -5.80251 11130 ft 306 kts 142°
2026-04-21 10:30 54.44800 -5.78059 11409 ft 326 kts 143°
2026-04-21 10:30 54.42928 -5.75793 12043 ft 332 kts 143°
2026-04-21 10:30 54.41024 -5.73502 12764 ft 336 kts 143°
2026-04-21 10:30 54.39094 -5.71192 13530 ft 340 kts 144°
2026-04-21 10:31 54.37143 -5.68865 14275 ft 343 kts 144°
2026-04-21 10:31 54.35170 -5.66517 14905 ft 348 kts 144°
2026-04-21 10:31 54.33162 -5.64132 15513 ft 353 kts 144°
2026-04-21 10:31 54.31136 -5.61723 16132 ft 357 kts 144°
2026-04-21 10:32 54.29080 -5.59277 16771 ft 361 kts 144°
2026-04-21 10:32 54.27135 -5.56531 17370 ft 365 kts 134°
2026-04-21 10:32 54.25518 -5.53171 17992 ft 368 kts 125°
2026-04-21 10:32 54.24027 -5.49593 18628 ft 371 kts 126°
2026-04-21 10:33 54.22515 -5.45990 19179 ft 374 kts 126°
2026-04-21 10:33 54.20983 -5.42361 19609 ft 380 kts 126°
2026-04-21 10:33 54.19420 -5.38680 20034 ft 387 kts 127°
2026-04-21 10:33 54.17827 -5.34930 20436 ft 393 kts 127°
2026-04-21 10:34 54.16209 -5.31119 20842 ft 399 kts 127°
2026-04-21 10:34 54.14574 -5.27271 21320 ft 403 kts 126°
2026-04-21 10:34 54.12940 -5.23431 21762 ft 408 kts 126°
2026-04-21 10:34 54.11254 -5.19475 22010 ft 418 kts 127°
2026-04-21 10:35 54.09521 -5.15423 22247 ft 428 kts 127°
2026-04-21 10:35 54.07754 -5.11300 22687 ft 432 kts 128°
2026-04-21 10:35 54.05977 -5.07152 23190 ft 435 kts 127°
2026-04-21 10:35 54.04184 -5.02974 23413 ft 438 kts 127°
2026-04-21 10:36 54.02379 -4.98780 23459 ft 442 kts 127°
2026-04-21 10:36 54.00556 -4.94556 23455 ft 443 kts 127°
2026-04-21 10:36 53.98731 -4.90329 23456 ft 443 kts 127°
2026-04-21 10:36 53.96909 -4.86105 23455 ft 444 kts 127°
2026-04-21 10:37 53.95079 -4.81866 23447 ft 445 kts 127°
2026-04-21 10:37 53.93252 -4.77647 23441 ft 444 kts 127°
2026-04-21 10:37 53.91421 -4.73433 23441 ft 444 kts 128°
2026-04-21 10:37 53.89589 -4.69230 23426 ft 441 kts 127°
2026-04-21 10:38 53.87757 -4.65035 23452 ft 444 kts 127°
2026-04-21 10:38 53.85917 -4.60828 23447 ft 445 kts 127°
2026-04-21 10:38 53.84073 -4.56626 23433 ft 445 kts 127°
2026-04-21 10:38 53.82222 -4.52410 23427 ft 446 kts 127°
2026-04-21 10:39 53.80374 -4.48200 23429 ft 446 kts 127°
2026-04-21 10:39 53.78525 -4.43986 23422 ft 446 kts 127°
2026-04-21 10:39 53.76678 -4.39778 23422 ft 446 kts 127°
2026-04-21 10:39 53.74829 -4.35579 23422 ft 445 kts 127°
2026-04-21 10:40 53.72976 -4.31388 23422 ft 445 kts 127°
2026-04-21 10:40 53.71122 -4.27201 23421 ft 445 kts 128°
2026-04-21 10:40 53.69267 -4.23022 23419 ft 445 kts 128°
2026-04-21 10:40 53.67408 -4.18843 23378 ft 443 kts 128°
2026-04-21 10:41 53.65571 -4.14725 22839 ft 437 kts 127°
2026-04-21 10:41 53.63824 -4.10584 22266 ft 430 kts 121°
2026-04-21 10:41 53.62467 -4.06146 21719 ft 424 kts 112°
2026-04-21 10:41 53.61351 -4.01582 21146 ft 418 kts 111°
2026-04-21 10:42 53.60247 -3.97086 20613 ft 413 kts 112°
2026-04-21 10:42 53.59156 -3.92673 20167 ft 404 kts 111°
2026-04-21 10:42 53.58083 -3.88350 19717 ft 397 kts 112°
2026-04-21 10:42 53.57028 -3.84103 19256 ft 390 kts 112°
2026-04-21 10:43 53.55990 -3.79932 18817 ft 382 kts 112°
2026-04-21 10:43 53.54969 -3.75850 18300 ft 376 kts 112°
2026-04-21 10:43 53.53973 -3.71874 17755 ft 371 kts 112°
2026-04-21 10:43 53.52977 -3.67891 17173 ft 367 kts 112°
2026-04-21 10:44 53.51985 -3.63924 16682 ft 361 kts 112°
2026-04-21 10:44 53.51032 -3.60114 16230 ft 355 kts 112°
2026-04-21 10:44 53.50075 -3.56296 15624 ft 355 kts 112°
2026-04-21 10:44 53.49120 -3.52499 15071 ft 352 kts 112°
2026-04-21 10:45 53.48168 -3.48725 14572 ft 349 kts 112°
2026-04-21 10:45 53.47221 -3.44986 14058 ft 346 kts 112°
2026-04-21 10:45 53.46283 -3.41287 13531 ft 343 kts 112°
2026-04-21 10:45 53.45352 -3.37621 12987 ft 340 kts 112°
2026-04-21 10:46 53.44433 -3.33991 12589 ft 333 kts 112°
2026-04-21 10:46 53.43546 -3.30497 12443 ft 319 kts 112°
2026-04-21 10:46 53.42690 -3.27143 12308 ft 306 kts 112°
2026-04-21 10:46 53.41867 -3.23931 12179 ft 294 kts 112°
2026-04-21 10:47 53.41077 -3.20842 12043 ft 283 kts 112°
2026-04-21 10:47 53.40323 -3.17854 11823 ft 275 kts 109°
2026-04-21 10:47 53.39936 -3.14763 11492 ft 271 kts 92°
2026-04-21 10:47 53.40118 -3.11632 11131 ft 270 kts 77°
2026-04-21 10:48 53.40834 -3.08733 10767 ft 271 kts 62°
2026-04-21 10:48 53.41781 -3.06029 10446 ft 267 kts 62°
2026-04-21 10:48 53.42715 -3.03346 10072 ft 265 kts 62°
2026-04-21 10:48 53.43641 -3.00681 9674 ft 264 kts 62°
2026-04-21 10:49 53.44558 -2.98031 9313 ft 262 kts 62°
2026-04-21 10:49 53.45465 -2.95399 8911 ft 261 kts 63°
2026-04-21 10:49 53.46369 -2.92772 8515 ft 259 kts 63°
2026-04-21 10:49 53.47270 -2.90159 8139 ft 258 kts 63°
2026-04-21 10:50 53.48164 -2.87567 7761 ft 256 kts 63°
2026-04-21 10:50 53.49055 -2.84983 7383 ft 255 kts 63°
2026-04-21 10:50 53.49940 -2.82411 7013 ft 254 kts 63°
2026-04-21 10:50 53.50818 -2.79850 6621 ft 251 kts 63°
2026-04-21 10:51 53.51670 -2.77367 6487 ft 240 kts 64°
2026-04-21 10:51 53.52158 -2.74794 6317 ft 227 kts 88°
2026-04-21 10:51 53.51907 -2.72229 6013 ft 224 kts 112°
2026-04-21 10:51 53.50993 -2.70119 5679 ft 228 kts 137°
2026-04-21 10:52 53.49598 -2.68890 5347 ft 234 kts 157°
2026-04-21 10:52 53.48023 -2.68047 4991 ft 235 kts 157°
2026-04-21 10:52 53.46485 -2.67227 4647 ft 234 kts 157°
2026-04-21 10:52 53.44935 -2.66401 4321 ft 234 kts 157°
2026-04-21 10:53 53.43369 -2.65568 3988 ft 233 kts 157°
2026-04-21 10:53 53.41850 -2.64756 3695 ft 231 kts 157°
2026-04-21 10:53 53.40325 -2.63939 3381 ft 230 kts 157°
2026-04-21 10:53 53.38796 -2.63120 3016 ft 231 kts 158°
2026-04-21 10:54 53.37264 -2.62303 2718 ft 232 kts 158°
2026-04-21 10:54 53.35730 -2.61487 2437 ft 232 kts 158°
2026-04-21 10:54 53.34201 -2.60670 2175 ft 229 kts 158°
2026-04-21 10:54 53.32691 -2.59864 2021 ft 226 kts 158°
2026-04-21 10:55 53.31234 -2.59094 2001 ft 212 kts 156°
2026-04-21 10:55 53.29876 -2.58378 2005 ft 200 kts 156°
2026-04-21 10:55 53.28558 -2.57676 2018 ft 194 kts 156°
2026-04-21 10:55 53.27315 -2.57018 2024 ft 183 kts 155°
2026-04-21 10:56 53.26115 -2.56378 2009 ft 181 kts 156°
2026-04-21 10:56 53.24957 -2.55640 2006 ft 175 kts 140°
2026-04-21 10:56 53.24114 -2.54275 2014 ft 168 kts 117°
2026-04-21 10:56 53.23726 -2.52361 2025 ft 179 kts 92°
2026-04-21 10:57 53.23927 -2.50340 2015 ft 179 kts 65°
2026-04-21 10:57 53.24658 -2.48621 2014 ft 183 kts 53°
2026-04-21 10:57 53.25466 -2.46972 2014 ft 183 kts 52°
2026-04-21 10:57 53.26268 -2.45331 2012 ft 181 kts 52°
2026-04-21 10:58 53.27062 -2.43702 2002 ft 182 kts 53°
2026-04-21 10:58 53.27866 -2.42050 1862 ft 182 kts 53°
2026-04-21 10:58 53.28668 -2.40402 1651 ft 182 kts 52°
2026-04-21 10:58 53.29462 -2.38767 1431 ft 180 kts 52°
2026-04-21 10:59 53.30219 -2.37211 1180 ft 162 kts 52°
2026-04-21 10:59 53.30892 -2.35825 950 ft 148 kts 53°
2026-04-21 10:59 53.31501 -2.34565 739 ft 131 kts 54°
2026-04-21 10:59 53.32068 -2.33373 509 ft 128 kts 53°
2026-04-21 11:00 53.32628 -2.32236 383 ft 126 kts 51°
2026-04-21 11:00 53.33194 -2.31087 283 ft 128 kts 53°
2026-04-21 11:00 53.33720 -2.29989 237 ft 108 kts 52°
2026-04-21 11:00 53.34053 -2.29297 246 ft 49 kts 50°
2026-04-21 11:01 53.34206 -2.28986 250 ft 30 kts 51°
2026-04-21 11:01 53.34322 -2.28750 251 ft 22 kts 48°
2026-04-21 11:01 53.34442 -2.28583 255 ft 24 kts 35°
2026-04-21 11:02 53.34718 -2.28381 261 ft 20 kts 39°
2026-04-21 11:02 53.34812 -2.28199 260 ft 21 kts 53°
2026-04-21 11:02 53.34904 -2.28005 260 ft 22 kts 51°
2026-04-21 11:02 53.34999 -2.27808 259 ft 22 kts 51°
2026-04-21 11:03 53.35096 -2.27607 259 ft 22 kts 51°
2026-04-21 11:03 53.35196 -2.27403 258 ft 23 kts 50°
2026-04-21 11:03 53.35320 -2.27213 249 ft 26 kts 12°
2026-04-21 11:03 53.35430 -2.27259 244 ft 10 kts 323°
2026-04-21 11:04 53.35482 -2.27333 245 ft 10 kts 321°
2026-04-21 11:04 53.35538 -2.27410 244 ft 13 kts 320°
2026-04-21 11:04 53.35661 -2.27580 247 ft 26 kts 320°
2026-04-21 11:04 53.35807 -2.27713 248 ft 23 kts 324°
2026-04-21 11:05 53.35918 -2.27859 250 ft 16 kts 354°
2026-04-21 11:05 53.36059 -2.27836 249 ft 16 kts 349°
2026-04-21 11:05 53.36104 -2.27968 250 ft 16 kts 282°
2026-04-21 11:05 53.36165 -2.28120 251 ft 19 kts 314°
2026-04-21 11:06 53.36258 -2.28299 252 ft 18 kts 307°
2026-04-21 11:06 53.36347 -2.28448 253 ft 20 kts 336°
2026-04-21 11:06 53.36477 -2.28595 253 ft 24 kts 315°
2026-04-21 11:06 53.36583 -2.28777 254 ft 22 kts 313°
2026-04-21 11:07 53.36690 -2.28953 254 ft 21 kts 318°
2026-04-21 11:07 53.36805 -2.29019 254 ft 14 kts 43°
2026-04-21 11:07 53.36785 -2.28945 254 ft 9 kts 139°
2026-04-21 11:07 53.36772 -2.28924 253 ft 0 kts 134°
2026-04-21 11:10 53.36772 -2.28925 253 ft 0 kts 134°